This is the latest recevied weather packets stored in our database for station/object AA9VI-10. If no packets are shown the sender has not sent any weather packets the latest 10 day(s).
| Time | Temp. | Humidity | Pressure | Rain* | Wind** | Luminosity | Snow |
|---|---|---|---|---|---|---|---|
| 1777856417 | 18.33° C | 46% | 1005.1 hPa | 0 mm | - | - | - |
| 1777855817 | 18.89° C | 46% | 1005.2 hPa | 0 mm | - | - | - |
| 1777855217 | 18.89° C | 45% | 1005.4 hPa | 0 mm | - | - | - |
| 1777854617 | 19.44° C | 44% | 1005.4 hPa | 0 mm | - | - | - |
| 1777854017 | 19.44° C | 43% | 1005.4 hPa | 0 mm | - | - | - |
| 1777853417 | 19.44° C | 42% | 1005.3 hPa | 0 mm | - | - | - |
| 1777852817 | 20° C | 42% | 1005.4 hPa | 0 mm | - | - | - |
| 1777852217 | 20° C | 41% | 1005.4 hPa | 0 mm | - | - | - |
| 1777851617 | 20° C | 42% | 1005.4 hPa | 0 mm | - | - | - |
| 1777851017 | 20° C | 41% | 1005.4 hPa | 0 mm | - | - | - |
| 1777850417 | 20° C | 40% | 1005.5 hPa | 0 mm | - | - | - |
| 1777849817 | 20.56° C | 40% | 1005.6 hPa | 0 mm | - | - | - |
| 1777849217 | 20.56° C | 40% | 1005.6 hPa | 0 mm | - | - | - |
| 1777848622 | 20.56° C | 42% | 1005.7 hPa | 0 mm | - | - | - |
| 1777848017 | 20° C | 40% | 1005.7 hPa | 0 mm | - | - | - |
| 1777847417 | 20° C | 40% | 1005.7 hPa | 0 mm | - | - | - |
| 1777846817 | 20° C | 40% | 1005.8 hPa | 0 mm | - | - | - |
| 1777846217 | 20° C | 40% | 1005.9 hPa | 0 mm | - | - | - |
| 1777845617 | 19.44° C | 39% | 1006.1 hPa | 0 mm | - | - | - |
| 1777845017 | 19.44° C | 40% | 1006 hPa | 0 mm | - | - | - |
| 1777844417 | 19.44° C | 40% | 1006.2 hPa | 0 mm | - | - | - |
| 1777843817 | 19.44° C | 40% | 1006.4 hPa | 0 mm | - | - | - |
| 1777843217 | 18.89° C | 40% | 1006.5 hPa | 0 mm | - | - | - |
| 1777842617 | 18.33° C | 41% | 1006.6 hPa | 0 mm | - | - | - |
| 1777842017 | 18.89° C | 39% | 1006.7 hPa | 0 mm | - | - | - |
* Rain latest hour (hover to see other rain measurements)
** Current wind speed in m/s (hover to see current wind gust speed)